KOSEN 1
1 49402U 21102H   25335.60294863  .00009221  00000-0  39006-3 0  9996
2 49402  97.3494  16.7266 0014735 178.8213 181.3061 15.23321952223904
HO-113
1 50466U 21131B   25335.88823613  .00000702  00000-0  23161-3 0  9991
2 50466  98.5061  64.3644 0003590 345.3286  14.7798 14.41087365206695
SNUGLITE 2
1 52899U 22065F   25335.66025735  .00001520  00000-0  30056-3 0  9995
2 52899  98.1922 116.2563 0006410 286.0908  73.9588 14.63782656182092
UmKA 1 (RS40S)
1 57172U 23091G   25335.80020719  .00006746  00000-0  33481-3 0  9997
2 57172  97.5365  30.3134 0015135  87.9743 272.3224 15.17931565134032
CubeBel-2 (EU11S)
1 57175U 23091K   25335.82033370  .00014122  00000-0  59173-3 0  9992
2 57175  97.5366  32.7246 0012470  90.6684 269.5982 15.23567935134199
SONATE-2
1 59112U 24043Q   25335.63988282  .00030009  00000-0  65391-3 0  9994
2 59112  97.5320 111.4841 0008955 202.3333 157.7526 15.44177208 97265
MO-122
1 60209U 24125G   25335.84808406  .00032435  00000-0  67991-3 0  9999
2 60209  97.2541 186.2184 0013553 220.7808 139.2428 15.45246755 78920
GRBBeta
1 60237U 24128C   25335.85273867  .00004633  00000-0  33208-3 0  9994
2 60237  61.9895 187.6373 0056640  94.5105 266.2460 15.04581169 76557
Curium One
1 60242U 24128H   25335.86013920  .00008750  00000-0  55011-3 0  9993
2 60242  61.9788 182.7428 0056473  91.5711 269.1852 15.08572704 76641
ROBUSTA-3A
1 60243U 24128J   25335.79254785  .00007555  00000-0  48514-3 0  9994
2 60243  61.9862 184.4658 0056385  88.9750 271.7803 15.07963277 76614
CatSat
1 60246U 24125J   25335.82322120  .00038301  00000-0  95923-3 0  9996
2 60246  97.2335 183.3324 0033810 184.1232 175.9740 15.39374932 76843
HYPERVIEW-1G (RS66S)
1 61772U 24199AP  25335.87738281  .00046080  00000-0  92280-3 0  9992
2 61772  97.3227 205.1847 0008454 287.5945  72.4381 15.46572652103937
AO-123
1 61781U 24199AY  25335.89382200  .00012049  00000-0  39628-3 0  9995
2 61781  97.3265 201.4639 0013296 299.7320  60.2598 15.31589475103681
ZIMSAT 2
1 61783U 24199BA  25335.83588105  .00173422  00000-0  15434-2 0  9994
2 61783  97.3125 208.2973 0003340 278.2088  81.8794 15.67940974107298
HADES-R (SO-124)
1 62690U 25009CK  25335.19555563  .00162366  00000-0  24353-2 0  9999
2 62690  97.3906  57.4098 0002263 220.4721 139.6364 15.54346620 48980
HYDRA-T
1 62692U 25009CM  25335.18572322  .00148927  00000-0  21291-2 0  9997
2 62692  97.3902  57.5745 0002100 230.2821 129.8249 15.55711454 48994
JINJUSat 1B
1 63210U 25052A   25335.64117138  .00017942  00000-0  69645-3 0  9991
2 63210  97.4209 227.8695 0006060  70.5809 289.6084 15.26134501 39899
NUSHSAT 1
1 63211U 25052B   25335.64381881  .00019922  00000-0  75075-3 0  9994
2 63211  97.4193 227.9793 0006064  73.2825 286.9079 15.27096179 39909
TEVEL2-4
1 63213U 25052D   25335.63995233  .00018593  00000-0  71447-3 0  9999
2 63213  97.4114 227.5497 0005204  84.2795 275.9037 15.26467975 39899
TEVEL2-5
1 63214U 25052E   25335.64488906  .00018454  00000-0  71063-3 0  9995
2 63214  97.4112 227.5443 0005180  84.5109 275.6720 15.26399100 39894
TEVEL2-6
1 63215U 25052F   25335.65185182  .00019173  00000-0  73916-3 0  9995
2 63215  97.4114 227.5398 0005249  84.8128 275.3709 15.26352408 39890
TEVEL2-1
1 63217U 25052H   25335.69220455  .00017967  00000-0  69953-3 0  9999
2 63217  97.4089 227.3994 0005270  93.7054 266.4787 15.26036868 39890
TEVEL2-3
1 63218U 25052J   25335.69155825  .00018013  00000-0  70092-3 0  9997
2 63218  97.4089 227.4038 0005268  94.6133 265.5707 15.26056628 39894
TEVEL2-2
1 63219U 25052K   25335.69298299  .00018133  00000-0  70594-3 0  9991
2 63219  97.4084 227.4008 0005269  94.0220 266.1620 15.26038295 39890
TEVEL2-9
1 63237U 25052AD  25335.64528266  .00017545  00000-0  71331-3 0  9992
2 63237  97.4152 227.0755 0008810 111.9307 248.2868 15.24570648 39853
TEVEL2-7
1 63238U 25052AE  25335.46120932  .00020479  00000-0  83540-3 0  9996
2 63238  97.4151 226.8703 0008855 112.1114 248.1065 15.24424731 39827
TEVEL2-8
1 63239U 25052AF  25335.66357809  .00017318  00000-0  70765-3 0  9997
2 63239  97.4153 227.0552 0008913 112.2397 247.9787 15.24401842 39853
HYDRA-W
1 63490U 25052BL  25335.65800628  .00062159  00000-0  15851-2 0  9994
2 63490  97.4079 229.2967 0011300  99.3794 260.8730 15.39240973 40017
HADES-ICM (SO-125)
1 63492U 25052BN  25335.44435378  .00071991  00000-0  19396-2 0  9991
2 63492  97.4086 228.8426 0011193 103.8567 256.3923 15.37502796 39969
Dragonfly
1 65729U 98067XH  25335.85232241  .00123925  00000-0  10934-2 0  9995
2 65729  51.6261 191.3365 0006425 210.8786 149.1833 15.67778050 11455
RSP-03
1 65732U 98067XL  25335.83328981  .00100299  00000-0  97939-3 0  9994
2 65732  51.6276 191.9628 0006786 186.6272 173.4635 15.65356239 11452
GHS-01
1 65733U 98067XM  25335.82037374  .00150647  00000-0  12238-2 0  9997
2 65733  51.6281 191.1284 0007042 209.8558 150.2038 15.69686593 11464
BOTAN
1 65942U 98067XP  25335.00539653  .00087116  00000-0  10536-2 0  9995
2 65942  51.6292 198.4381 0004587 161.3348 198.7814 15.59944090  8032
CEVROSAT1
1 98526U 25248E   25313.13142326  .00000000  00000-0  19360-3 0    02
2 98526  45.4084 218.4764 0001315 254.8982 242.1062 15.17981583    02
